| time (UTC) | temp C | wind direction | speed KPH | gust KPH | rain 1hr cm | rain 24hr cm | rain mn cm | humidity % | barometer mb |
| 20260506082401 | 21 | 51 | 0.0 | 4.8 | 0.00 | 3.61 | 3.61 | 85 | 1016.1 |
| 20260506081856 | 21 | 77 | 3.2 | 6.4 | 0.18 | 3.61 | 3.61 | 84 | 1016.5 |
| 20260506081355 | 21 | 87 | 1.6 | 6.4 | 0.00 | 3.58 | 3.58 | 84 | 1016.7 |
| 20260506080852 | 21 | 72 | 6.4 | 9.7 | 0.00 | 3.58 | 3.58 | 85 | 1016.3 |
| 20260506080349 | 21 | 102 | 1.6 | 9.7 | 0.13 | 3.58 | 3.58 | 85 | 1016.3 |
| 20260506073333 | 22 | 86 | 3.2 | 9.7 | 0.00 | 3.56 | 3.56 | 91 | 1016.0 |
| 20260506072830 | 22 | 90 | 1.6 | 3.2 | 0.00 | 3.56 | 3.56 | 92 | 1015.6 |
| 20260506072327 | 22 | 84 | 4.8 | 6.4 | 0.00 | 3.56 | 3.56 | 92 | 1015.7 |
| 20260506071825 | 21 | 98 | 1.6 | 6.4 | 0.00 | 3.56 | 3.56 | 92 | 1015.8 |
| 20260506071323 | 21 | 83 | 1.6 | 14.5 | 0.00 | 3.56 | 3.56 | 92 | 1015.4 |
| 20260506070819 | 21 | 116 | 4.8 | 9.7 | 0.00 | 3.56 | 3.56 | 93 | 1015.5 |
| 20260506070316 | 21 | 75 | 4.8 | 9.7 | 0.00 | 3.56 | 3.56 | 94 | 1016.0 |
| 20260506062253 | 21 | 39 | 8.0 | 11.3 | 0.79 | 3.53 | 3.53 | 95 | 1017.4 |
| 20260506061749 | 22 | 33 | 3.2 | 3.2 | 0.48 | 3.45 | 3.45 | 94 | 1018.0 |
| 20260506061247 | 22 | 43 | 1.6 | 3.2 | 0.30 | 3.40 | 3.40 | 95 | 1018.0 |
| 20260506060745 | 21 | 76 | 0.0 | 1.6 | 0.18 | 3.38 | 3.38 | 95 | 1018.2 |
| 20260506060242 | 21 | 89 | 0.0 | 0.0 | 0.00 | 3.35 | 3.35 | 95 | 1018.3 |
| 20260506051209 | 22 | 77 | 0.0 | 6.4 | 0.13 | 3.30 | 3.30 | 95 | 1017.7 |
| 20260506050707 | 22 | 62 | 3.2 | 6.4 | 0.00 | 3.28 | 3.28 | 94 | 1017.7 |
| 20260506050204 | 22 | 87 | 1.6 | 4.8 | 0.00 | 3.28 | 3.28 | 95 | 1017.9 |
| 20260506044654 | 22 | 81 | 3.2 | 3.2 | 0.00 | 3.28 | 3.28 | 95 | 1017.9 |
| 20260506044151 | 22 | 92 | 0.0 | 4.8 | 0.00 | 3.28 | 3.28 | 95 | 1017.5 |
| 20260506043648 | 21 | 80 | 1.6 | 3.2 | 0.00 | 3.28 | 3.28 | 95 | 1017.9 |
| 20260506043146 | 21 | 313 | 3.2 | 9.7 | 0.00 | 3.28 | 3.28 | 95 | 1017.8 |
| 20260506042645 | 22 | 62 | 1.6 | 3.2 | 0.00 | 3.28 | 3.28 | 95 | 1018.0 |
| 20260506042142 | 21 | 42 | 1.6 | 3.2 | 0.00 | 3.28 | 3.28 | 96 | 1018.0 |
| 20260506041641 | 21 | 70 | 1.6 | 3.2 | 0.79 | 3.28 | 3.28 | 95 | 1018.2 |
| 20260506041137 | 21 | 31 | 3.2 | 4.8 | 0.89 | 3.28 | 3.28 | 95 | 1018.3 |
| 20260506040635 | 21 | 348 | 8.0 | 11.3 | 0.61 | 3.15 | 3.15 | 96 | 1018.2 |
| 20260506040132 | 21 | 30 | 3.2 | 9.7 | 1.85 | 3.12 | 3.12 | 95 | 1018.7 |
| 20260506035629 | 21 | 53 | 4.8 | 4.8 | 1.80 | 3.02 | 3.02 | 95 | 1019.0 |
| 20260506035125 | 21 | 36 | 6.4 | 6.4 | 0.89 | 2.82 | 2.82 | 95 | 1018.8 |
| 20260506034622 | 21 | 43 | 0.0 | 4.8 | 1.07 | 2.72 | 2.72 | 95 | 1019.2 |
| 20260506034119 | 21 | 101 | 1.6 | 3.2 | 1.07 | 2.64 | 2.64 | 95 | 1019.2 |
| 20260506033616 | 21 | 72 | 0.0 | 1.6 | 0.79 | 2.54 | 2.54 | 95 | 1019.2 |
| 20260506033113 | 21 | 10 | 4.8 | 6.4 | 0.71 | 2.46 | 2.46 | 95 | 1019.1 |
| 20260506032611 | 21 | 57 | 3.2 | 9.7 | 1.32 | 2.41 | 2.41 | 95 | 1019.3 |
| 20260506032107 | 21 | 21 | 4.8 | 6.4 | 1.85 | 2.34 | 2.34 | 95 | 1019.4 |
| 20260506031605 | 22 | 7 | 4.8 | 6.4 | 1.68 | 2.16 | 2.16 | 95 | 1019.3 |
| 20260506031101 | 22 | 61 | 4.8 | 6.4 | 1.07 | 2.01 | 2.01 | 95 | 1019.4 |
| 20260506030600 | 22 | 45 | 3.2 | 9.7 | 0.61 | 1.88 | 1.88 | 95 | 1019.3 |
| 20260506030057 | 22 | 327 | 4.8 | 9.7 | 0.61 | 1.83 | 1.83 | 95 | 1019.2 |
| 20260506025554 | 22 | 66 | 1.6 | 3.2 | 0.61 | 1.78 | 1.78 | 95 | 1019.4 |
| 20260506025049 | 22 | 93 | 0.0 | 0.0 | 0.30 | 1.73 | 1.73 | 95 | 1019.4 |
| 20260506024547 | 22 | 73 | 0.0 | 3.2 | 0.30 | 1.68 | 1.68 | 95 | 1019.1 |
| 20260506024043 | 22 | 68 | 0.0 | 4.8 | 0.30 | 1.65 | 1.65 | 95 | 1019.2 |
| 20260506023539 | 22 | 3 | 1.6 | 3.2 | 0.79 | 1.63 | 1.63 | 95 | 1018.9 |
| 20260506023037 | 22 | 87 | 3.2 | 3.2 | 0.97 | 1.57 | 1.57 | 95 | 1018.9 |
| 20260506022534 | 22 | 318 | 4.8 | 4.8 | 0.89 | 1.50 | 1.50 | 95 | 1019.0 |
| 20260506022032 | 22 | 281 | 4.8 | 4.8 | 0.89 | 1.40 | 1.40 | 95 | 1019.1 |
| 20260506021529 | 22 | 64 | 0.0 | 1.6 | 0.89 | 1.32 | 1.32 | 95 | 1019.1 |
| 20260506021026 | 22 | 322 | 1.6 | 9.7 | 1.07 | 1.24 | 1.24 | 95 | 1018.8 |
| 20260506020524 | 22 | 37 | 3.2 | 4.8 | 1.19 | 1.17 | 1.17 | 95 | 1019.2 |
| 20260506020021 | 22 | 72 | 1.6 | 3.2 | 1.07 | 1.07 | 1.07 | 95 | 1019.5 |
| 20260506015518 | 22 | 105 | 0.0 | 0.0 | 0.89 | 0.99 | 0.99 | 95 | 1019.6 |
| 20260506015015 | 22 | 109 | 0.0 | 0.0 | 0.61 | 0.89 | 0.89 | 95 | 1019.7 |
| 20260506014513 | 22 | 98 | 0.0 | 0.0 | 0.79 | 0.84 | 0.84 | 95 | 1019.6 |
| 20260506014009 | 22 | 99 | 0.0 | 0.0 | 0.61 | 0.76 | 0.76 | 95 | 1019.3 |
| 20260506013507 | 22 | 93 | 0.0 | 0.0 | 0.30 | 0.71 | 0.71 | 95 | 1019.1 |
| 20260506013003 | 22 | 108 | 0.0 | 0.0 | 0.00 | 0.66 | 0.66 | 95 | 1018.9 |
| 20260506012459 | 22 | 90 | 0.0 | 1.6 | 0.13 | 0.66 | 0.66 | 95 | 1018.8 |
| 20260506011956 | 22 | 73 | 0.0 | 3.2 | 0.13 | 0.66 | 0.66 | 95 | 1018.3 |
| 20260506011453 | 22 | 269 | 3.2 | 3.2 | 0.18 | 0.64 | 0.64 | 95 | 1018.2 |
| 20260506010950 | 22 | 66 | 1.6 | 4.8 | 0.18 | 0.64 | 0.64 | 95 | 1018.1 |
| 20260506010449 | 22 | 37 | 4.8 | 6.4 | 0.00 | 0.61 | 0.61 | 95 | 1017.8 |
| 20260506005944 | 22 | 250 | 4.8 | 6.4 | 0.00 | 0.61 | 0.61 | 95 | 1017.7 |
| 20260506005443 | 22 | 295 | 6.4 | 12.9 | 0.00 | 0.61 | 0.61 | 95 | 1017.5 |
| 20260506004937 | 22 | 328 | 3.2 | 4.8 | 0.00 | 0.61 | 0.61 | 95 | 1017.6 |
| 20260506004436 | 22 | 337 | 3.2 | 3.2 | 0.00 | 0.61 | 0.61 | 95 | 1017.2 |
| 20260506003932 | 22 | 32 | 1.6 | 11.3 | 0.00 | 0.61 | 0.61 | 95 | 1017.2 |
| 20260506003428 | 22 | 62 | 1.6 | 9.7 | 0.13 | 0.61 | 0.61 | 95 | 1017.3 |
| 20260506002925 | 22 | 315 | 6.4 | 6.4 | 0.13 | 0.61 | 0.61 | 95 | 1017.2 |
| 20260506002421 | 22 | 301 | 6.4 | 9.7 | 0.00 | 0.58 | 0.58 | 95 | 1017.5 |
| 20260506001916 | 22 | 13 | 4.8 | 4.8 | 0.00 | 0.58 | 0.58 | 95 | 1017.9 |
| 20260506001414 | 22 | 307 | 1.6 | 3.2 | 0.18 | 0.58 | 0.58 | 95 | 1018.1 |
| 20260506000911 | 22 | 19 | 3.2 | 6.4 | 0.18 | 0.58 | 0.58 | 95 | 1017.9 |
| 20260506000409 | 22 | 73 | 0.0 | 1.6 | 0.00 | 0.56 | 0.56 | 95 | 1018.4 |
| 20260505235905 | 22 | 290 | 0.0 | 1.6 | 0.00 | 0.56 | 0.56 | 95 | 1018.2 |
| 20260505235403 | 22 | 58 | 0.0 | 1.6 | 0.00 | 0.56 | 0.56 | 95 | 1018.2 |
| 20260505234900 | 22 | 42 | 0.0 | 3.2 | 0.00 | 0.56 | 0.56 | 95 | 1018.2 |
| 20260505234357 | 22 | 287 | 3.2 | 3.2 | 0.18 | 0.56 | 0.56 | 95 | 1017.8 |
| 20260505233854 | 22 | 180 | 0.0 | 3.2 | 0.30 | 0.56 | 0.56 | 95 | 1017.9 |
| 20260505233352 | 22 | 106 | 0.0 | 3.2 | 0.30 | 0.53 | 0.53 | 95 | 1017.7 |
| 20260505232849 | 22 | 298 | 3.2 | 4.8 | 0.30 | 0.51 | 0.51 | 95 | 1017.6 |
| 20260505232347 | 22 | 322 | 3.2 | 4.8 | 0.13 | 0.48 | 0.48 | 95 | 1018.0 |
| 20260505231843 | 22 | 99 | 0.0 | 0.0 | 0.00 | 0.46 | 0.46 | 95 | 1018.2 |
| 20260505231341 | 22 | 96 | 0.0 | 0.0 | 0.00 | 0.46 | 0.46 | 95 | 1018.2 |
| 20260505230839 | 22 | 21 | 1.6 | 1.6 | 0.00 | 0.46 | 0.46 | 95 | 1018.0 |
| 20260505230336 | 22 | 97 | 0.0 | 0.0 | 0.00 | 0.46 | 0.46 | 95 | 1018.1 |
| 20260505225832 | 22 | 97 | 0.0 | 0.0 | 0.00 | 0.46 | 0.46 | 95 | 1018.0 |
| 20260505225330 | 22 | 123 | 0.0 | 0.0 | 0.00 | 0.46 | 0.46 | 95 | 1017.9 |
| 20260505224825 | 22 | 93 | 0.0 | 3.2 | 0.00 | 0.46 | 0.46 | 95 | 1017.8 |
| 20260505224323 | 22 | 7 | 1.6 | 3.2 | 0.00 | 0.46 | 0.46 | 95 | 1017.8 |
| 20260505223820 | 21 | 10 | 1.6 | 4.8 | 0.00 | 0.46 | 0.46 | 95 | 1017.6 |
| 20260505223317 | 21 | 55 | 1.6 | 4.8 | 0.00 | 0.46 | 0.46 | 95 | 1017.4 |
| 20260505222812 | 21 | 332 | 8.0 | 14.5 | 0.00 | 0.46 | 0.46 | 95 | 1017.6 |
| 20260505222309 | 21 | 295 | 3.2 | 11.3 | 0.00 | 0.46 | 0.46 | 95 | 1017.5 |
| 20260505221806 | 21 | 326 | 9.7 | 11.3 | 0.18 | 0.46 | 0.46 | 95 | 1017.3 |
| 20260505221302 | 21 | 4 | 8.0 | 14.5 | 0.18 | 0.46 | 0.46 | 95 | 1016.9 |
| 20260505220759 | 21 | 96 | 1.6 | 9.7 | 0.00 | 0.43 | 0.43 | 95 | 1016.7 |
| 20260505220257 | 21 | 303 | 6.4 | 11.3 | 0.00 | 0.43 | 0.43 | 95 | 1016.8 |
| 20260505215755 | 21 | 34 | 3.2 | 6.4 | 0.13 | 0.43 | 0.43 | 95 | 1017.2 |
| 20260505215252 | 21 | 102 | 3.2 | 14.5 | 0.13 | 0.43 | 0.43 | 95 | 1017.3 |
| 20260505214750 | 21 | 359 | 4.8 | 6.4 | 0.00 | 0.41 | 0.41 | 95 | 1017.2 |
| 20260505214247 | 21 | 75 | 1.6 | 9.7 | 0.18 | 0.41 | 0.41 | 95 | 1017.3 |
| 20260505213744 | 21 | 24 | 3.2 | 4.8 | 0.18 | 0.41 | 0.41 | 95 | 1017.1 |
| 20260505213241 | 21 | 28 | 3.2 | 6.4 | 0.00 | 0.38 | 0.38 | 95 | 1017.0 |
| 20260505212737 | 21 | 75 | 1.6 | 3.2 | 0.00 | 0.38 | 0.38 | 95 | 1017.0 |
| 20260505212235 | 21 | 60 | 0.0 | 1.6 | 0.00 | 0.38 | 0.38 | 95 | 1017.0 |
| 20260505211732 | 21 | 58 | 3.2 | 3.2 | 0.13 | 0.38 | 0.38 | 95 | 1017.0 |
| 20260505211229 | 21 | 77 | 0.0 | 1.6 | 0.13 | 0.38 | 0.38 | 95 | 1017.2 |
| 20260505210725 | 21 | 99 | 0.0 | 0.0 | 0.00 | 0.36 | 0.36 | 95 | 1017.2 |
| 20260505210222 | 21 | 96 | 0.0 | 0.0 | 0.00 | 0.36 | 0.36 | 95 | 1017.1 |
| 20260505205720 | 21 | 105 | 0.0 | 0.0 | 0.18 | 0.36 | 0.36 | 95 | 1017.3 |
| 20260505205218 | 21 | 82 | 1.6 | 4.8 | 0.18 | 0.36 | 0.36 | 95 | 1017.0 |
| 20260505204714 | 21 | 43 | 3.2 | 6.4 | 0.18 | 0.36 | 0.36 | 95 | 1016.9 |
| 20260505204212 | 21 | 357 | 1.6 | 6.4 | 0.00 | 0.33 | 0.33 | 95 | 1017.0 |
| 20260505203709 | 21 | 89 | 0.0 | 1.6 | 0.00 | 0.33 | 0.33 | 94 | 1016.9 |
| 20260505203206 | 21 | 71 | 0.0 | 3.2 | 0.13 | 0.33 | 0.33 | 94 | 1016.9 |
| 20260505202701 | 21 | 27 | 6.4 | 11.3 | 0.30 | 0.33 | 0.33 | 94 | 1016.8 |
| 20260505202158 | 21 | 358 | 3.2 | 9.7 | 0.18 | 0.30 | 0.30 | 94 | 1016.7 |
| 20260505201654 | 21 | 41 | 1.6 | 1.6 | 0.30 | 0.28 | 0.28 | 94 | 1016.9 |
| 20260505201152 | 21 | 39 | 0.0 | 1.6 | 0.48 | 0.28 | 0.28 | 94 | 1017.2 |
| 20260505200650 | 21 | 109 | 0.0 | 0.0 | 0.30 | 0.23 | 0.23 | 94 | 1017.5 |
| 20260505200147 | 21 | 104 | 0.0 | 0.0 | 0.43 | 0.20 | 0.20 | 94 | 1017.4 |
| 20260505195642 | 21 | 102 | 0.0 | 1.6 | 0.89 | 0.18 | 0.18 | 94 | 1017.4 |
| 20260505195140 | 21 | 244 | 1.6 | 4.8 | 0.61 | 0.10 | 0.10 | 93 | 1017.3 |
| 20260505194637 | 21 | 186 | 1.6 | 3.2 | 0.18 | 0.03 | 0.03 | 93 | 1017.5 |
| 20260505194133 | 21 | 98 | 0.0 | 0.0 | 0.00 | 0.00 | 0.00 | 93 | 1017.5 |
| 20260505193630 | 21 | 83 | 0.0 | 1.6 | 0.00 | 0.00 | 0.00 | 93 | 1017.4 |
| 20260505193127 | 21 | 62 | 0.0 | 1.6 | 0.00 | 0.00 | 0.00 | 93 | 1017.3 |
| 20260505192626 | 21 | 103 | 0.0 | 3.2 | 0.00 | 0.00 | 0.00 | 93 | 1017.3 |
| 20260505192123 | 21 | 349 | 0.0 | 3.2 | 0.00 | 0.00 | 0.00 | 93 | 1017.5 |
| 20260505191621 | 21 | 294 | 1.6 | 4.8 | 0.00 | 0.00 | 0.00 | 92 | 1017.4 |
| 20260505191119 | 21 | 305 | 3.2 | 3.2 | 0.00 | 0.00 | 0.00 | 92 | 1017.7 |
| 20260505190614 | 21 | 301 | 1.6 | 1.6 | 0.00 | 0.00 | 0.00 | 92 | 1017.8 |
| 20260505190109 | 21 | 308 | 1.6 | 3.2 | 0.00 | 0.00 | 0.00 | 92 | 1017.8 |
| 20260505185607 | 21 | 83 | 0.0 | 1.6 | 0.00 | 0.00 | 0.00 | 92 | 1017.6 |
| 20260505185103 | 21 | 300 | 0.0 | 1.6 | 0.00 | 0.00 | 0.00 | 92 | 1017.7 |
| 20260505184559 | 21 | 285 | 3.2 | 3.2 | 0.00 | 0.00 | 0.00 | 92 | 1017.6 |
| 20260505184056 | 21 | 299 | 0.0 | 1.6 | 0.00 | 0.00 | 0.00 | 92 | 1017.7 |
| 20260505183553 | 21 | 103 | 0.0 | 6.4 | 0.00 | 0.00 | 0.00 | 92 | 1017.7 |
| 20260505183051 | 21 | 356 | 1.6 | 4.8 | 0.00 | 0.00 | 0.00 | 92 | 1017.2 |
| 20260505182547 | 21 | 30 | 1.6 | 1.6 | 0.00 | 0.00 | 0.00 | 92 | 1017.5 |
| 20260505182043 | 21 | 83 | 0.0 | 4.8 | 0.00 | 0.00 | 0.00 | 92 | 1017.1 |
| 20260505181540 | 21 | 295 | 3.2 | 4.8 | 0.00 | 0.00 | 0.00 | 92 | 1016.9 |
| 20260505181038 | 21 | 325 | 4.8 | 6.4 | 0.00 | 0.00 | 0.00 | 92 | 1016.9 |
| 20260505180533 | 21 | 36 | 3.2 | 6.4 | 0.00 | 0.00 | 0.00 | 92 | 1017.0 |
| 20260505180032 | 21 | 75 | 1.6 | 4.8 | 0.00 | 0.00 | 0.00 | 92 | 1017.1 |
| 20260505175531 | 21 | 133 | 0.0 | 6.4 | 0.00 | 0.00 | 0.00 | 92 | 1017.1 |
| 20260505175029 | 21 | 92 | 0.0 | 3.2 | 0.00 | 0.00 | 0.00 | 92 | 1017.2 |
| 20260505174526 | 21 | 43 | 3.2 | 11.3 | 0.00 | 0.00 | 0.00 | 92 | 1017.0 |
| 20260505174022 | 21 | 58 | 0.0 | 6.4 | 0.00 | 0.00 | 0.00 | 92 | 1017.3 |
| 20260505173519 | 21 | 13 | 1.6 | 4.8 | 0.00 | 0.00 | 0.00 | 92 | 1017.3 |
| 20260505173015 | 21 | 81 | 1.6 | 4.8 | 0.00 | 0.00 | 0.00 | 92 | 1017.4 |
| 20260505172513 | 21 | 97 | 0.0 | 3.2 | 0.00 | 0.00 | 0.00 | 92 | 1017.5 |
| 20260505172009 | 21 | 51 | 0.0 | 11.3 | 0.00 | 0.00 | 0.00 | 92 | 1017.6 |
| 20260505171504 | 21 | 59 | 1.6 | 11.3 | 0.00 | 0.00 | 0.00 | 92 | 1017.3 |
| 20260505171001 | 21 | 77 | 0.0 | 1.6 | 0.00 | 0.00 | 0.00 | 92 | 1017.5 |
| 20260505170458 | 21 | 21 | 6.4 | 11.3 | 0.00 | 0.00 | 0.00 | 92 | 1017.6 |
| 20260505165953 | 21 | 2 | 3.2 | 11.3 | 0.00 | 0.00 | 0.00 | 92 | 1017.4 |
| 20260505165449 | 21 | 346 | 4.8 | 6.4 | 0.00 | 0.00 | 0.00 | 92 | 1017.5 |
| 20260505164945 | 21 | 33 | 3.2 | 9.7 | 0.00 | 0.00 | 0.00 | 92 | 1017.5 |
| 20260505164442 | 21 | 25 | 3.2 | 6.4 | 0.00 | 0.00 | 0.00 | 92 | 1017.6 |
| 20260505163940 | 20 | 72 | 3.2 | 14.5 | 0.00 | 0.00 | 0.00 | 93 | 1017.6 |
| 20260505163438 | 20 | 97 | 1.6 | 12.9 | 0.00 | 0.00 | 0.00 | 93 | 1017.5 |
| 20260505162937 | 20 | 97 | 3.2 | 12.9 | 0.00 | 0.00 | 0.00 | 93 | 1017.5 |
| 20260505162432 | 20 | 58 | 1.6 | 6.4 | 0.00 | 0.00 | 0.00 | 93 | 1017.2 |
| 20260505161930 | 20 | 17 | 4.8 | 11.3 | 0.00 | 0.00 | 0.00 | 93 | 1017.4 |
| 20260505161426 | 20 | 93 | 1.6 | 6.4 | 0.00 | 0.00 | 0.00 | 93 | 1017.5 |
| 20260505160924 | 20 | 69 | 4.8 | 11.3 | 0.00 | 0.00 | 0.00 | 93 | 1017.8 |
| 20260505160422 | 20 | 55 | 0.0 | 6.4 | 0.00 | 0.00 | 0.00 | 93 | 1017.8 |
| 20260505152858 | 20 | 103 | 6.4 | 9.7 | 0.00 | 0.00 | 0.00 | 94 | 1018.7 |
| 20260505152355 | 20 | 89 | 1.6 | 4.8 | 0.00 | 0.00 | 0.00 | 94 | 1018.7 |
| 20260505151855 | 20 | 50 | 3.2 | 4.8 | 0.00 | 0.00 | 0.00 | 94 | 1018.9 |
| 20260505151352 | 20 | 10 | 1.6 | 4.8 | 0.00 | 0.00 | 0.00 | 94 | 1019.2 |
| 20260505150849 | 20 | 82 | 0.0 | 3.2 | 0.00 | 0.00 | 0.00 | 94 | 1019.1 |
| 20260505150346 | 20 | 79 | 3.2 | 4.8 | 0.00 | 0.00 | 0.00 | 94 | 1019.1 |
| 20260505140305 | 19 | 306 | 3.2 | 3.2 | 0.13 | 2.67 | 2.67 | 94 | 1019.5 |
| 20260505130228 | 18 | 80 | 3.2 | 6.4 | 0.00 | 2.64 | 2.64 | 94 | 1019.3 |
| 20260505124718 | 18 | 85 | 0.0 | 4.8 | 0.00 | 2.64 | 2.64 | 94 | 1019.7 |
| 20260505124215 | 18 | 64 | 1.6 | 1.6 | 0.00 | 2.64 | 2.64 | 94 | 1019.9 |
| 20260505123711 | 18 | 292 | 3.2 | 4.8 | 0.00 | 2.64 | 2.64 | 94 | 1019.8 |
| 20260505123209 | 18 | 117 | 3.2 | 4.8 | 0.18 | 2.64 | 2.64 | 94 | 1019.7 |
| 20260505122705 | 18 | 268 | 3.2 | 4.8 | 0.18 | 2.64 | 2.64 | 94 | 1020.0 |
| 20260505122202 | 18 | 255 | 0.0 | 3.2 | 0.00 | 2.62 | 2.62 | 94 | 1019.6 |
| 20260505121658 | 18 | 88 | 0.0 | 1.6 | 0.00 | 2.62 | 2.62 | 94 | 1019.3 |
| 20260505121155 | 18 | 63 | 1.6 | 9.7 | 0.00 | 2.62 | 2.62 | 94 | 1019.5 |
| 20260505120651 | 18 | 25 | 0.0 | 0.0 | 0.00 | 2.62 | 2.62 | 94 | 1019.9 |
| 20260505120147 | 18 | 274 | 1.6 | 3.2 | 0.18 | 2.62 | 2.62 | 94 | 1019.8 |
| 20260505115640 | 18 | 96 | 1.6 | 3.2 | 0.18 | 2.62 | 2.62 | 94 | 1019.8 |
| 20260505115139 | 18 | 339 | 1.6 | 4.8 | 0.00 | 2.59 | 2.59 | 94 | 1019.4 |
| 20260505114636 | 18 | 121 | 1.6 | 4.8 | 0.00 | 2.59 | 2.59 | 94 | 1019.3 |
| 20260505114132 | 18 | 232 | 3.2 | 4.8 | 0.00 | 2.59 | 2.59 | 94 | 1019.2 |
| 20260505113629 | 18 | 85 | 0.0 | 6.4 | 0.00 | 2.59 | 2.59 | 94 | 1019.0 |
| 20260505113126 | 18 | 276 | 1.6 | 6.4 | 0.13 | 2.59 | 2.59 | 94 | 1019.1 |
| 20260505112622 | 18 | 77 | 0.0 | 1.6 | 0.13 | 2.59 | 2.59 | 94 | 1019.2 |
| 20260505112120 | 18 | 52 | 0.0 | 6.4 | 0.00 | 2.57 | 2.57 | 94 | 1018.8 |
| 20260505111613 | 18 | 16 | 8.0 | 11.3 | 0.00 | 2.57 | 2.57 | 94 | 1018.4 |
| 20260505111109 | 18 | 53 | 3.2 | 11.3 | 0.18 | 2.57 | 2.57 | 94 | 1018.4 |
| 20260505110606 | 18 | 115 | 3.2 | 11.3 | 0.18 | 2.57 | 2.57 | 95 | 1018.3 |
| 20260505102039 | 17 | 267 | 1.6 | 3.2 | 0.00 | 2.54 | 2.54 | 94 | 1018.9 |
| 20260505101537 | 17 | 14 | 0.0 | 1.6 | 0.00 | 2.54 | 2.54 | 94 | 1019.1 |
| 20260505101033 | 17 | 68 | 3.2 | 4.8 | 0.13 | 2.54 | 2.54 | 94 | 1019.2 |
| 20260505100530 | 17 | 81 | 0.0 | 3.2 | 0.13 | 2.54 | 2.54 | 94 | 1019.7 |
| 20260505100027 | 17 | 57 | 3.2 | 4.8 | 0.00 | 2.51 | 2.51 | 94 | 1019.6 |
| 20260505095523 | 17 | 2 | 0.0 | 0.0 | 0.00 | 2.51 | 2.51 | 94 | 1019.7 |
| 20260505095019 | 17 | 53 | 0.0 | 1.6 | 0.00 | 2.51 | 2.51 | 94 | 1020.0 |
| 20260505094516 | 17 | 88 | 0.0 | 0.0 | 0.18 | 2.51 | 2.51 | 94 | 1019.9 |
| 20260505094012 | 17 | 305 | 1.6 | 4.8 | 0.18 | 2.51 | 2.51 | 94 | 1020.0 |
| 20260505093509 | 17 | 208 | 1.6 | 4.8 | 0.00 | 2.49 | 2.49 | 94 | 1020.0 |
| 20260505093006 | 17 | 19 | 1.6 | 1.6 | 0.13 | 2.49 | 2.49 | 94 | 1020.0 |
| 20260505092503 | 17 | 351 | 0.0 | 1.6 | 0.13 | 2.49 | 2.49 | 94 | 1019.7 |
| 20260505092001 | 17 | 339 | 3.2 | 4.8 | 0.00 | 2.46 | 2.46 | 94 | 1019.8 |
| 20260505091458 | 17 | 110 | 1.6 | 4.8 | 0.18 | 2.46 | 2.46 | 94 | 1019.7 |
| 20260505090956 | 17 | 90 | 0.0 | 4.8 | 0.18 | 2.46 | 2.46 | 94 | 1019.3 |
| 20260505090454 | 17 | 243 | 1.6 | 9.7 | 0.13 | 2.44 | 2.44 | 94 | 1019.3 |
| 20260505085951 | 17 | 300 | 3.2 | 4.8 | 0.13 | 2.44 | 2.44 | 94 | 1019.3 |
| 20260505085449 | 17 | 312 | 1.6 | 6.4 | 0.18 | 2.41 | 2.41 | 94 | 1019.3 |
| 20260505084947 | 17 | 20 | 1.6 | 3.2 | 0.48 | 2.41 | 2.41 | 94 | 1019.2 |
| 20260505084445 | 17 | 359 | 3.2 | 9.7 | 0.48 | 2.36 | 2.36 | 94 | 1019.1 |
| 20260505083943 | 17 | 39 | 3.2 | 4.8 | 0.66 | 2.31 | 2.31 | 94 | 1019.7 |
| 20260505083440 | 17 | 288 | 4.8 | 9.7 | 0.43 | 2.26 | 2.26 | 94 | 1020.0 |
| 20260505082936 | 17 | 318 | 3.2 | 4.8 | 0.71 | 2.21 | 2.21 | 94 | 1020.6 |